Weather in Novaya Mayna

Russia / Ulyanovsk Oblast     54°08′53″N   49°46′16″E
temp.,
°C
wind,
m/s
gust,
m/s
humid.,
%
clouds,
%
prec.,
mm/h
press.,
hPa
HPBL,
m
28 february, sun
sun2801:00−13nnw5119296 0.0 1002390
04:00−16nnw5119397 0.1 1004335
07:00−17nnw5119498 0.0 1005323
10:00−16nnw5109399 0.1 1007351
13:00−14nnw589198 0.1 1009416
16:00−13nnw589198 0.1 1010502
19:00−14nnw3993100 0.1 1013449
22:00−17nnw379590 0.1 1015146
1 march, mon
mon101:00−19nnw35974 0.0 101779
04:00−21nnw35972 0.0 1019112
07:00−22nnw35970 0.0 102076
10:00−18nnw36930 0.0 1022255
13:00−15nw358945 0.0 1022381
16:00−13wnw249062 0.0 1022379
19:00−19wsw229639 0.0 102120
22:00−18ssw339829 0.0 102152
2 march, tue
tue201:00−16ssw379896 0.0 1018169
04:00−13ssw5109598 0.1 1014274
07:00−11ssw61294100 0.3 1010400
10:00−5sw71394100 0.9 1006579
13:00−1sw61197100 1.3 1003701
16:000wsw51099100 3.1 1001599
19:000w4994100 0.3 1000563
22:00−1w379797 0.4 1000361
3 march, wed
wed301:00−2wnw389694 0.5 1000422
04:00−3wnw489696 1.0 1001361
07:00−4nw499588 0.2 1002325
10:00−4nw499292 0.3 1003433
13:00−3nw488992 0.0 1004705
16:00−4nw598995 0.2 1005815
19:00−7wnw4109384 0.1 1006354
22:00−6nw4129278 0.1 1009570
4 march, thu
thu401:00−9nw4109283 0.0 1010279
04:00−12wnw369554 0.1 1011119
07:00−13w379638 0.0 1012158
10:00−9sw489361 0.0 1010320
13:00−4sw6128997 0.0 1007662
16:00−1sw8158999 0.2 1004949
19:00−1sw71584100 0.0 1002991
22:00−1wsw71587100 0.1 10021100